Regional Weather Roundup
Issued by NWS Bismarck, ND

Home | Current Version | Previous Version | Text Only | Print | Product List | Glossary On
Versions: 1 2 3 4 5 6 7 8 9 10 11 12 13 14 15 16 17 18 19 20 21 22 23 24 25 26 27 28 29 30 31 32 33 34 35 36 37 38 39 40 41 42 43 44 45 46 47 48 49 50
000
ASUS43 KBIS 200110
RWRBIS

NWR BROADCAST TEXT
NATIONAL WEATHER SERVICE BISMARCK ND
700 PM CST SUN NOV 19 2017

NOTE: "FAIR" INDICATES FEW OR NO CLOUDS BELOW 12,000 FEET WITH NO
SIGNIFICANT WEATHER AND/OR OBSTRUCTIONS TO VISIBILITY.


CITY           SKY/WX    TMP DP  RH WIND       PRES   REMARKS
WILLISTON      CLOUDY    31  20  63 S6        29.62F
MINOT          CLOUDY    31  24  75 S10       29.64F
MINOT AFB      CLOUDY    27  22  83 S10       29.63F WCI  17
BISMARCK       CLOUDY    33  24  69 CALM      29.72F
DICKINSON      CLOUDY    29  19  66 S10       29.66F WCI  20
GARRISON         N/A     30  25  81 SW5       29.68F
HETTINGER ARPT PTCLDY    36  18  48 S6        29.73F
JAMESTOWN      CLOUDY    28  23  81 S3        29.73F
CARRINGTON     FAIR      27  25  93 S6        29.74F WCI  20
LINTON           N/A     36  19  51 S12       29.76F
OAKES            N/A     32  21  64 SW8       29.77S
TIOGA          FAIR      34  19  55 S9        29.62F
$$

CITY           SKY/WX    TMP DP  RH WIND       PRES   REMARKS
GRAND FORKS    CLOUDY    22  21  96 CALM      29.76F
GRAND FORKS AF CLEAR     19  18  96 CALM      29.76F
DEVILS LAKE    CLOUDY    24  22  91 CALM      29.72F
FARGO          CLOUDY    27  22  81 CALM      29.77S
CANDO          FAIR      23  23 100 SE6       29.71F WCI  16
CAVALIER       FAIR      16  14  93 CALM      29.76F FOG
GWINNER          N/A     28  21  74 SW9       29.76F WCI  20
ROLLA          FAIR      23  21  93 SW9       29.68F WCI  13
WALHALLA       FAIR      18  18 100 CALM      29.75F
$$

CITY           SKY/WX    TMP DP  RH WIND       PRES   REMARKS
ABERDEEN       CLOUDY    35  22  58 CALM      29.80F
MOBRIDGE       CLOUDY    36  24  62 SE8       29.75F
BUFFALO          N/A     35  20  54 SW8       29.67F
RAPID CITY     CLOUDY    36  18  48 N3        29.76S
GLASGOW        CLOUDY    37  22  54 S10       29.57F
SIDNEY         CLOUDY    32  22  66 SW10      29.63F
WOLF POINT     CLOUDY    28  20  71 W3        29.60F
GLENDIVE       CLOUDY    36  23  59 SW12      29.65F
MILES CITY     CLOUDY    39  24  55 SE6       29.67F
BAKER          CLOUDY    38  22  52 SW10      29.68F
$$

CITY           SKY/WX    TMP DP  RH WIND       PRES   REMARKS
BILLINGS       CLOUDY    45  14  28 SW16      29.71F
GREAT FALLS    CLOUDY    46   8  21 SW26G39   29.62S
REGINA         MOCLDY    21  18  86 SE9       29.48F WCI  11
ESTEVAN        PTCLDY    30  21  69 S9        29.56F
$$




USA.gov is the U.S. government's official web portal to all federal, state and local government web resources and services.